Regional Weather Roundup
Issued by NWS

Home | Current Version | Previous Version | Graphics & Text | Print | Product List | Glossary On
Versions: 1 2 3 4 5 6 7 8 9 10 11 12 13 14 15 16 17 18 19 20 21 22 23 24 25 26 27 28 29 30 31 32 33 34 35 36 37 38 39 40 41 42 43 44 45 46 47 48 49 50
584
ASUS45 KBOU 261707
RWRCO

WEATHER ROUNDUP FOR COLORADO
NATIONAL WEATHER SERVICE DENVER/BOULDER CO
1100 AM MDT SUN MAR 26 2017

NOTE: "FAIR" INDICATES FEW OR NO CLOUDS BELOW 12000 FEET WITH NO
SIGNIFICANT WEATHER AND/OR OBSTRUCTIONS TO VISIBILITY.

COZ001>005-013-030-031-261800-
...NORTHWEST COLORADO...

CITY           SKY/WX    TMP DP  RH WIND       PRES   REMARKS
CRAIG          CLOUDY    40  29  64 SW13      30.02R
HAYDEN         CLOUDY    36  28  75 W14       30.01R
MEEKER         CLOUDY    44  27  51 N10       30.02R
MOUNT WERNER   NOT AVBL
STEAMBOAT SPGS CLOUDY    34  30  85 S3        30.00R
WALDEN         NOT AVBL
$$

COZ006>008-011-261800-
...WEST CENTRAL VALLEYS...

CITY           SKY/WX    TMP DP  RH WIND       PRES   REMARKS
GRAND JUNCTION CLOUDY    53  30  41 NE5       29.98R
MONTROSE       CLOUDY    47  37  68 NW8       30.00R
EAGLE          PTSUNNY   45  32  61 CALM      29.97F
RIFLE          FAIR      51  30  44 NW10      29.98R
DELTA          FAIR      53  39  58 N5        29.98R
NUCLA          CLOUDY    45  36  70 W7        30.04R
$$

COZ017>023-064>068-261800-
...SOUTHWEST COLORADO...

CITY           SKY/WX    TMP DP  RH WIND       PRES   REMARKS
DURANGO        PTSUNNY   46  34  62 E8        29.96R
CORTEZ         CLOUDY    46  38  73 W14       30.00R
PAGOSA SPRINGS CLOUDY    40  30  69 CALM      29.99R
TELLURIDE      FAIR      35  31  85 W6        30.02R WCI  30
WOLF CREEK PAS PTSUNNY   27  21  80 NW6       30.07R WCI  20
$$

COZ009-010-012-014-032>034-037-058>063-261800-
...CENTRAL COLORADO...

CITY           SKY/WX    TMP DP  RH WIND       PRES   REMARKS
ASPEN          CLOUDY    40  33  76 VRB3      29.95F
BUENA VISTA    FAIR      49  19  30 N23G33    29.89S
COPPER MTN     PTSUNNY   28  23  80 MISG      30.00S
BERTHOUD PASS  CLOUDY    19   9  63 NW24      29.99F WCI   2
COTTONWOOD PAS CLOUDY    41  18  38 CALM      29.94S
GUNNISON       FAIR      43  30  60 SW12      29.95R
KREMMLING      CLOUDY    45  32  61 CALM      29.96S
LEADVILLE      FAIR      34  19  54 N14       29.95S WCI  25
MONARCH PASS   FOG       25  23  93 W12       30.10S VSB<1/4 WCI  14
SALIDA         FAIR      54  20  26 N16G22    29.95S
SUNLIGHT       FOG      N/A N/A N/A W6        30.06R VSB 1/4
WILKERSON PASS CLOUDY    30  25  80 NE5       30.00R WCI  25
$$

COZ069>075-261800-
...SAN LUIS VALLEY/SANGRE DE CRISTO MOUNTAINS...

CITY           SKY/WX    TMP DP  RH WIND       PRES   REMARKS
ALAMOSA        CLOUDY    46  37  71 MISG      29.90S
LA VETA PASS   NOT AVBL
SAGUACHE       FAIR      46  30  53 N13G22    29.92R
$$

COZ035-036-038>040-261800-
...NORTHERN COLORADO FRONT RANGE...

CITY           SKY/WX    TMP DP  RH WIND       PRES   REMARKS
DENVER INTL AP PTSUNNY   51  34  52 N18G28    29.89R
DMNS CITY PARK   N/A     48  35  60 N12       29.91R
AURORA         PTSUNNY   46  34  64 N16       29.91R
FRONT RANGE AP PTSUNNY   48  34  57 N16G24    29.90R
ERIE MUNI ARPT PTSUNNY   51  36  57 N7        29.90S
BOULDER MUN AP CLOUDY    52  36  54 E6        29.89S
CENTENNIAL     CLOUDY    47  34  60 N15       29.90R
BROOMFIELD     PTSUNNY   48  36  61 N7        29.91R
FORT COLLINS   FAIR      50  36  58 NE16G23   29.89R
LONGMONT       CLOUDY    58  37  46 NE8       29.91S
$$

COZ041-046-047-076>085-087-088-261800-
...PIKES PEAK/PALMER DIVIDE AND SOUTHERN FOOTHILLS...

CITY           SKY/WX    TMP DP  RH WIND       PRES   REMARKS
COLO. SPRINGS  PTSUNNY   48  33  56 NW24G37   29.87R
A. F. ACADEMY  PTSUNNY   42  33  69 N25G35    29.88R
SCHRIEVER AFB  FAIR      46  32  59 N23G40    29.86R
ELLICOTT         N/A    N/A N/A N/A N30G36    29.83R
FALCON         FAIR      42  32  67 N22G28    29.88R
FORT CARSON    PTSUNNY   49  33  53 N24G38    29.84R
LIMON          CLOUDY    44  38  79 N13       29.86R
MONUMENT HILL  CLOUDY    37  32  81 NW16G26   29.91R
TRINIDAD       LGT RAIN  41  37  86 NW12      29.86R FOG
$$

COZ042>045-048>051-090-091-261800-
...NORTHEAST COLORADO...

CITY           SKY/WX    TMP DP  RH WIND       PRES   REMARKS
GREELEY ARPT   LGT RAIN  47  39  74 N14       29.91R
AKRON          CLOUDY    47  38  71 N13       29.89S
BURLINGTON     FAIR      44  40  85 E14       29.85R
WRAY           NOT AVBL
STERLING       LGT RAIN  43  41  93 SE9       29.87S
HOLYOKE        FAIR      46  43  87 N5        29.89S
FORT MORGAN    CLOUDY    48  32  55 E8        29.90R
$$

COZ086-089-092>099-261800-
...SOUTHEAST COLORADO...

CITY           SKY/WX    TMP DP  RH WIND       PRES   REMARKS
PUEBLO         CLOUDY    53  33  46 N22G30    29.83R
LA JUNTA       CLOUDY    46  36  68 N14       29.82R
LAMAR          CLOUDY    42  37  82 NE9       29.80R
SPRINGFIELD      N/A     49  33  54 NW30G37   29.75R
$$




USA.gov is the U.S. government's official web portal to all federal, state and local government web resources and services.